When you browse on this site, cookies collect data to enhance your experience and personalize the content and advertising you see.
Visit our Privacy Policy to learn more. By continuing to use the site, you agree to this use of cookies and data.

Hourly Weather Charlottetown

Today, 20 September, Sunday

Time Temperature Precipitation Wind Pressure Humidity
00:00 +5°C° 0 mm 2 mps 768 mmHg 63%
01:00 +5°C° 0 mm 2 mps 768 mmHg 62%
02:00 +5°C° 0 mm 2 mps 768 mmHg 61%
03:00 +5°C° 0 mm 2 mps 769 mmHg 63%
04:00 +4°C° 0 mm 3 mps 769 mmHg 65%
05:00 +4°C° 0 mm 3 mps 769 mmHg 68%
06:00 +6°C° 0 mm 4 mps 769 mmHg 65%
07:00 +8°C° 0 mm 5 mps 770 mmHg 62%
08:00 +9°C° 0 mm 6 mps 770 mmHg 59%
09:00 +10°C° 0 mm 6 mps 770 mmHg 55%
10:00 +11°C° 0 mm 6 mps 771 mmHg 51%
11:00 +11°C° 0 mm 6 mps 771 mmHg 46%
12:00 +11°C° 0 mm 6 mps 771 mmHg 46%
13:00 +11°C° 0 mm 6 mps 771 mmHg 46%
14:00 +11°C° 0 mm 6 mps 771 mmHg 45%
15:00 +11°C° 0 mm 6 mps 771 mmHg 48%
16:00 +10°C° 0 mm 5 mps 771 mmHg 51%
17:00 +10°C° 0 mm 5 mps 772 mmHg 54%
18:00 +8°C° 0 mm 4 mps 772 mmHg 60%
19:00 +6°C° 0 mm 4 mps 773 mmHg 67%
20:00 +5°C° 0 mm 3 mps 773 mmHg 74%
21:00 +6°C° 0 mm 2 mps 774 mmHg 75%
22:00 +5°C° 0 mm 2 mps 774 mmHg 77%
23:00 +5°C° 0 mm 2 mps 774 mmHg 78%

Tomorrow, 21 September, Monday

Time Temperature Precipitation Wind Pressure Humidity
00:00 +5°C° 0 mm 2 mps 774 mmHg 78%
01:00 +5°C° 0 mm 2 mps 774 mmHg 78%
02:00 +5°C° 0 mm 2 mps 774 mmHg 78%
03:00 +5°C° 0 mm 2 mps 774 mmHg 79%
04:00 +5°C° 0 mm 2 mps 774 mmHg 80%
05:00 +5°C° 0 mm 2 mps 774 mmHg 81%
06:00 +7°C° 0 mm 1 mps 774 mmHg 75%
07:00 +9°C° 0 mm 1 mps 775 mmHg 68%
08:00 +11°C° 0 mm 1 mps 775 mmHg 62%
09:00 +12°C° 0 mm 1 mps 775 mmHg 55%
10:00 +14°C° 0 mm 1 mps 774 mmHg 48%
11:00 +15°C° 0 mm 2 mps 774 mmHg 40%
12:00 +15°C° 0 mm 2 mps 774 mmHg 40%
13:00 +16°C° 0 mm 3 mps 774 mmHg 40%
14:00 +16°C° 0 mm 3 mps 773 mmHg 40%
15:00 +14°C° 0 mm 3 mps 773 mmHg 43%
16:00 +13°C° 0 mm 3 mps 773 mmHg 46%
17:00 +13°C° 0 mm 2 mps 772 mmHg 50%
18:00 +10°C° 0 mm 2 mps 772 mmHg 56%
19:00 +8°C° 0 mm 2 mps 772 mmHg 63%
20:00 +6°C° 0 mm 2 mps 772 mmHg 70%
21:00 +6°C° 0 mm 2 mps 772 mmHg 71%
22:00 +6°C° 0 mm 2 mps 772 mmHg 72%
23:00 +5°C° 0 mm 2 mps 771 mmHg 73%

Day after tomorrow, 22 September, Tuesday

Time Temperature Precipitation Wind Pressure Humidity
00:00 +5°C° 0 mm 2 mps 771 mmHg 73%
01:00 +5°C° 0 mm 2 mps 770 mmHg 72%
02:00 +5°C° 0 mm 2 mps 770 mmHg 72%
03:00 +5°C° 0 mm 3 mps 769 mmHg 70%
04:00 +7°C° 0 mm 3 mps 769 mmHg 67%
05:00 +6°C° 0 mm 4 mps 768 mmHg 65%
06:00 +8°C° 0 mm 5 mps 768 mmHg 63%
07:00 +9°C° 0 mm 6 mps 767 mmHg 60%
08:00 +11°C° 0 mm 6 mps 767 mmHg 57%
09:00 +11°C° 0 mm 7 mps 766 mmHg 57%
10:00 +12°C° 0 mm 7 mps 765 mmHg 56%
11:00 +12°C° 0 mm 8 mps 764 mmHg 56%
12:00 +11°C° 0.8 mm 8 mps 762 mmHg 67%
13:00 +10°C° 0.8 mm 8 mps 761 mmHg 78%
14:00 +9°C° 0.8 mm 8 mps 760 mmHg 89%
15:00 +8°C° 1.7 mm 9 mps 759 mmHg 90%
16:00 +8°C° 1.7 mm 11 mps 757 mmHg 92%
17:00 +8°C° 1.7 mm 12 mps 756 mmHg 93%
18:00 +9°C° 1.6 mm 13 mps 755 mmHg 93%
19:00 +9°C° 1.6 mm 14 mps 754 mmHg 93%
20:00 +9°C° 1.6 mm 14 mps 753 mmHg 92%
21:00 +10°C° 1.2 mm 14 mps 752 mmHg 93%
22:00 +10°C° 1.2 mm 14 mps 751 mmHg 93%
23:00 +12°C° 1.2 mm 13 mps 749 mmHg 94%

23 September, Wednesday

Time Temperature Precipitation Wind Pressure Humidity
00:00 +12°C° 0.7 mm 13 mps 749 mmHg 94%
01:00 +12°C° 0.7 mm 12 mps 748 mmHg 94%
02:00 +13°C° 0.7 mm 12 mps 747 mmHg 95%
03:00 +13°C° 1.4 mm 12 mps 746 mmHg 95%
04:00 +13°C° 1.4 mm 12 mps 745 mmHg 96%
05:00 +13°C° 1.4 mm 11 mps 744 mmHg 97%
06:00 +13°C° 2.8 mm 12 mps 743 mmHg 97%
07:00 +13°C° 2.8 mm 12 mps 742 mmHg 97%
08:00 +14°C° 2.8 mm 12 mps 741 mmHg 97%
09:00 +14°C° 5.5 mm 13 mps 739 mmHg 96%
10:00 +14°C° 5.5 mm 13 mps 738 mmHg 96%
11:00 +14°C° 5.5 mm 14 mps 737 mmHg 96%
12:00 +14°C° 2.2 mm 15 mps 737 mmHg 95%
13:00 +13°C° 2.2 mm 16 mps 737 mmHg 94%
14:00 +13°C° 2.2 mm 17 mps 737 mmHg 93%
15:00 +11°C° 0.7 mm 16 mps 738 mmHg 93%
16:00 +11°C° 0.7 mm 15 mps 739 mmHg 92%
17:00 +11°C° 0.7 mm 15 mps 740 mmHg 92%
18:00 +10°C° 0.2 mm 13 mps 741 mmHg 90%
19:00 +10°C° 0.2 mm 12 mps 743 mmHg 89%
20:00 +11°C° 0.2 mm 11 mps 744 mmHg 88%
21:00 +12°C° 0 mm 10 mps 745 mmHg 85%
22:00 +12°C° 0 mm 9 mps 746 mmHg 82%
23:00 +13°C° 0 mm 9 mps 746 mmHg 79%

24 September, Thursday

Time Temperature Precipitation Wind Pressure Humidity
00:00 +13°C° 0 mm 8 mps 747 mmHg 79%
01:00 +13°C° 0 mm 8 mps 747 mmHg 79%
02:00 +15°C° 0 mm 8 mps 748 mmHg 79%
03:00 +13°C° 0 mm 8 mps 749 mmHg 81%
04:00 +14°C° 0 mm 7 mps 749 mmHg 83%
05:00 +12°C° 0 mm 7 mps 750 mmHg 85%
06:00 +14°C° 0 mm 7 mps 751 mmHg 84%
07:00 +14°C° 0 mm 7 mps 752 mmHg 82%
08:00 +14°C° 0 mm 6 mps 752 mmHg 81%
09:00 +15°C° 0 mm 6 mps 753 mmHg 77%
10:00 +16°C° 0 mm 5 mps 753 mmHg 73%
11:00 +17°C° 0 mm 5 mps 753 mmHg 69%
12:00 +18°C° 0 mm 4 mps 753 mmHg 66%
13:00 +18°C° 0 mm 4 mps 753 mmHg 63%
14:00 +19°C° 0 mm 3 mps 753 mmHg 60%
15:00 +18°C° 0 mm 3 mps 753 mmHg 64%
16:00 +18°C° 0 mm 3 mps 753 mmHg 67%
17:00 +17°C° 0 mm 2 mps 753 mmHg 71%
18:00 +17°C° 0 mm 4 mps 753 mmHg 75%
19:00 +15°C° 0 mm 5 mps 753 mmHg 80%
20:00 +14°C° 0 mm 6 mps 754 mmHg 85%
21:00 +14°C° 0 mm 7 mps 754 mmHg 83%
22:00 +14°C° 0 mm 7 mps 753 mmHg 81%
23:00 +15°C° 0 mm 8 mps 753 mmHg 79%

25 September, Friday

Time Temperature Precipitation Wind Pressure Humidity
00:00 +15°C° 0 mm 8 mps 753 mmHg 78%
01:00 +15°C° 0 mm 8 mps 753 mmHg 77%
02:00 +16°C° 0 mm 8 mps 753 mmHg 76%
03:00 +15°C° 0.1 mm 8 mps 754 mmHg 76%
04:00 +13°C° 0.1 mm 9 mps 755 mmHg 76%
05:00 +12°C° 0.1 mm 9 mps 755 mmHg 76%
06:00 +11°C° 0 mm 9 mps 756 mmHg 74%
07:00 +10°C° 0 mm 9 mps 758 mmHg 72%
08:00 +8°C° 0 mm 9 mps 759 mmHg 71%
09:00 +9°C° 0 mm 8 mps 759 mmHg 67%
10:00 +10°C° 0 mm 8 mps 760 mmHg 63%
11:00 +10°C° 0 mm 7 mps 760 mmHg 59%
12:00 +10°C° 0 mm 7 mps 761 mmHg 58%
13:00 +11°C° 0 mm 7 mps 761 mmHg 56%
14:00 +11°C° 0 mm 8 mps 761 mmHg 54%
15:00 +10°C° 0 mm 7 mps 762 mmHg 55%
16:00 +10°C° 0 mm 6 mps 762 mmHg 56%
17:00 +10°C° 0 mm 6 mps 763 mmHg 57%
18:00 +9°C° 0 mm 5 mps 764 mmHg 60%
19:00 +8°C° 0 mm 5 mps 764 mmHg 62%
20:00 +7°C° 0 mm 4 mps 765 mmHg 64%
21:00 +7°C° 0 mm 4 mps 765 mmHg 65%
22:00 +7°C° 0 mm 4 mps 766 mmHg 66%
23:00 +6°C° 0 mm 4 mps 766 mmHg 66%
Show more